User: anonymous   Login
Location: Drayton Valley
(53.2170°N, 114.9830°W)
Time: 21:31:57
(UTC-06:00)
Language:

Cosmos 1302 Rocket - Orbit

View from above orbital plane
View from above orbital plane
View from above satellite
View from above satellite

Ground track
Ground track

The orbit data is extracted from the following two-line orbital elements,

1 12792U 81084B   15212.62950821 -.00000019  00000-0  25100-5 0  9990
2 12792 074.0280 219.1279 0014724 308.1467 171.0941 14.37327235776417
Epoch (UTC): 31 July 2015 15:06:29
Eccentricity: 0.0014724
inclination: 74.0280°
perigee height: 757 km
apogee height: 778 km
right ascension of ascending node: 219.1279°
argument of perigee: 308.1467°
revolutions per day: 14.37327235
mean anomaly at epoch: 171.0941°
orbit number at epoch: 77641

The dashed part of the orbit path shows where the satellite is in the earth's shadow,  

DLR